GORIZONT 1 [-]

Last updated on Aug. 8, 2020, 5:32 a.m. UTC

1 11158U 78118A   20220.39241111 -.00000257  00000-0  00000+0 0  9993
2 11158  12.0195 232.6750 3586709 243.9920  74.7116  1.00284428101465
UTC
Height (km)
Latitude
Longitude
Inclination
Orbital Period
UTC large
Height (km)
Speed (km/s)
/
Latitude / Longitude
Inclination (degrees)
Orbital Period (minutes)
Azimuth
Elevation
Range (km)
Doppler Factor
iOS Compass Heading
iOS Angle

Next 30 passes for location: Hong Kong

Rise time Rise Azimuth (degrees) Set time Set Azimuth (degrees) Duration Max altitude (degrees)

No matching passes for this satellites